TimeCST,TemperatureF,Dew PointF,Humidity,Sea Level PressureIn,VisibilityMPH,Wind Direction,Wind SpeedMPH,Gust SpeedMPH,PrecipitationIn,Events,Conditions,WindDirDegrees,DateUTC
12:15 AM,43.9,39.6,85,30.29,5.0,North,8.1,-,N/A,,Overcast,350,2013-01-03 06:15:00
12:35 AM,44.1,39.7,85,30.30,5.0,North,8.1,-,N/A,,Overcast,350,2013-01-03 06:35:00
12:55 AM,44.2,39.7,84,30.30,5.0,North,6.9,-,N/A,,Overcast,350,2013-01-03 06:55:00
1:15 AM,44.4,39.6,83,30.30,7.0,North,9.2,-,N/A,,Overcast,360,2013-01-03 07:15:00
1:35 AM,44.6,39.6,82,30.29,7.0,North,8.1,-,N/A,,Overcast,360,2013-01-03 07:35:00
1:55 AM,44.6,39.2,81,30.29,7.0,North,11.5,-,N/A,,Overcast,360,2013-01-03 07:55:00
2:15 AM,44.6,39.0,81,30.29,5.0,North,9.2,-,N/A,,Haze,360,2013-01-03 08:15:00
2:35 AM,44.6,39.0,81,30.29,5.0,North,10.4,-,N/A,,Haze,360,2013-01-03 08:35:00
2:55 AM,44.6,38.7,80,30.29,5.0,North,10.4,-,N/A,,Haze,360,2013-01-03 08:55:00
3:15 AM,44.6,38.7,80,30.29,7.0,North,11.5,-,N/A,,Overcast,360,2013-01-03 09:15:00
3:35 AM,44.6,38.7,80,30.29,7.0,North,9.2,-,N/A,,Overcast,360,2013-01-03 09:35:00
3:55 AM,44.8,38.3,78,30.29,5.0,North,9.2,-,N/A,,Haze,360,2013-01-03 09:55:00
4:15 AM,45.0,38.3,77,30.30,7.0,North,9.2,-,N/A,,Overcast,360,2013-01-03 10:15:00
4:35 AM,45.0,38.3,77,30.30,7.0,North,8.1,-,N/A,,Overcast,360,2013-01-03 10:35:00
4:55 AM,45.0,38.1,77,30.29,7.0,North,10.4,-,N/A,,Overcast,360,2013-01-03 10:55:00
5:15 AM,45.0,38.5,78,30.29,7.0,North,6.9,-,N/A,,Overcast,360,2013-01-03 11:15:00
5:35 AM,45.0,37.9,76,30.30,5.0,North,10.4,-,N/A,,Haze,360,2013-01-03 11:35:00
5:55 AM,45.0,37.9,76,30.31,7.0,North,11.5,-,N/A,,Overcast,360,2013-01-03 11:55:00
6:15 AM,44.8,37.8,76,30.31,7.0,North,12.7,-,N/A,,Overcast,360,2013-01-03 12:15:00
6:35 AM,45.1,37.6,75,30.32,7.0,North,10.4,-,N/A,,Overcast,10,2013-01-03 12:35:00
6:55 AM,45.1,37.4,74,30.33,7.0,North,10.4,-,N/A,,Overcast,360,2013-01-03 12:55:00
7:15 AM,45.1,37.4,74,30.33,7.0,North,10.4,-,N/A,,Overcast,360,2013-01-03 13:15:00
7:35 AM,45.5,37.0,72,30.34,7.0,North,11.5,17.3,N/A,,Overcast,360,2013-01-03 13:35:00
7:55 AM,45.5,37.4,73,30.34,5.0,North,11.5,-,N/A,,Haze,10,2013-01-03 13:55:00
8:15 AM,45.5,37.4,73,30.36,4.0,North,9.2,-,N/A,,Haze,360,2013-01-03 14:15:00
8:35 AM,45.7,37.6,73,30.36,5.0,North,9.2,-,N/A,,Haze,360,2013-01-03 14:35:00
8:55 AM,46.0,37.6,72,30.36,5.0,North,9.2,-,N/A,,Haze,360,2013-01-03 14:55:00
9:15 AM,46.4,37.8,72,30.38,5.0,North,11.5,-,N/A,,Haze,360,2013-01-03 15:15:00
9:35 AM,46.6,37.9,72,30.38,4.0,North,11.5,17.3,N/A,,Haze,360,2013-01-03 15:35:00
9:55 AM,47.3,38.1,70,30.38,5.0,North,12.7,16.1,N/A,,Haze,360,2013-01-03 15:55:00
10:15 AM,47.3,37.6,69,30.38,5.0,North,13.8,-,N/A,,Haze,360,2013-01-03 16:15:00
10:35 AM,47.7,37.4,68,30.38,5.0,North,12.7,17.3,N/A,,Haze,360,2013-01-03 16:35:00
10:55 AM,48.2,37.6,67,30.38,5.0,North,13.8,-,N/A,,Haze,350,2013-01-03 16:55:00
11:15 AM,48.4,37.9,67,30.39,5.0,NNW,12.7,17.3,N/A,,Haze,340,2013-01-03 17:15:00
11:35 AM,48.6,37.9,67,30.38,5.0,North,12.7,-,N/A,,Haze,350,2013-01-03 17:35:00
11:55 AM,49.1,38.1,66,30.38,5.0,North,12.7,-,N/A,,Haze,350,2013-01-03 17:55:00
12:15 PM,49.6,37.6,63,30.37,5.0,North,12.7,-,N/A,,Haze,360,2013-01-03 18:15:00
12:35 PM,50.0,38.1,64,30.36,5.0,NNW,11.5,-,N/A,,Haze,340,2013-01-03 18:35:00
12:55 PM,50.0,37.2,62,30.35,5.0,North,13.8,18.4,N/A,,Haze,350,2013-01-03 18:55:00
1:15 PM,50.0,36.3,59,30.34,5.0,NNW,13.8,18.4,N/A,,Haze,340,2013-01-03 19:15:00
2:15 PM,50.9,36.3,57,30.33,7.0,North,13.8,18.4,N/A,,Overcast,10,2013-01-03 20:15:00
2:35 PM,51.3,36.0,56,30.33,5.0,North,11.5,-,N/A,,Haze,350,2013-01-03 20:35:00
2:55 PM,51.4,35.4,54,30.33,4.0,North,12.7,-,N/A,,Haze,350,2013-01-03 20:55:00
3:35 PM,51.3,35.4,55,30.32,7.0,North,15.0,18.4,N/A,,Overcast,350,2013-01-03 21:35:00
3:55 PM,51.3,35.4,55,30.33,7.0,North,15.0,-,N/A,,Overcast,350,2013-01-03 21:55:00
4:35 PM,50.9,35.4,55,30.34,5.0,North,12.7,-,N/A,,Haze,350,2013-01-03 22:35:00
4:55 PM,50.5,35.1,55,30.35,7.0,North,15.0,-,N/A,,Overcast,350,2013-01-03 22:55:00
5:15 PM,50.4,34.5,55,30.36,7.0,North,11.5,-,N/A,,Overcast,360,2013-01-03 23:15:00
5:35 PM,50.2,33.8,53,30.36,7.0,North,12.7,17.3,N/A,,Overcast,360,2013-01-03 23:35:00
6:15 PM,50.0,34.3,55,30.38,7.0,North,9.2,-,N/A,,Overcast,350,2013-01-04 00:15:00
6:35 PM,50.0,34.7,56,30.38,7.0,North,8.1,-,N/A,,Overcast,360,2013-01-04 00:35:00
6:55 PM,50.0,34.7,56,30.39,7.0,North,6.9,-,N/A,,Overcast,360,2013-01-04 00:55:00
7:15 PM,50.0,34.7,56,30.39,10.0,North,9.2,-,N/A,,Overcast,360,2013-01-04 01:15:00
7:35 PM,50.0,34.2,55,30.39,7.0,North,9.2,-,N/A,,Overcast,360,2013-01-04 01:35:00
7:55 PM,50.0,34.0,54,30.39,7.0,North,9.2,-,N/A,,Overcast,360,2013-01-04 01:55:00
8:15 PM,50.0,33.6,53,30.39,7.0,North,8.1,-,N/A,,Overcast,360,2013-01-04 02:15:00
8:35 PM,50.0,34.0,54,30.39,7.0,North,6.9,-,N/A,,Overcast,360,2013-01-04 02:35:00
8:55 PM,50.0,34.3,55,30.39,7.0,North,5.8,-,N/A,,Overcast,350,2013-01-04 02:55:00
9:15 PM,50.0,34.3,55,30.39,7.0,North,6.9,-,N/A,,Overcast,360,2013-01-04 03:15:00
9:35 PM,50.0,34.0,54,30.39,7.0,North,6.9,-,N/A,,Overcast,350,2013-01-04 03:35:00
9:55 PM,50.0,34.0,54,30.38,7.0,North,8.1,-,N/A,,Overcast,360,2013-01-04 03:55:00
10:15 PM,50.0,33.6,53,30.38,7.0,North,8.1,-,N/A,,Overcast,350,2013-01-04 04:15:00
10:35 PM,49.6,33.8,54,30.38,7.0,NNW,8.1,-,N/A,,Overcast,340,2013-01-04 04:35:00
10:55 PM,49.6,33.6,54,30.38,7.0,NNW,8.1,-,N/A,,Overcast,340,2013-01-04 04:55:00
11:15 PM,49.5,33.8,55,30.37,7.0,NNW,6.9,-,N/A,,Overcast,340,2013-01-04 05:15:00
11:35 PM,49.5,34.0,55,30.37,7.0,NNW,6.9,-,N/A,,Overcast,340,2013-01-04 05:35:00
11:55 PM,49.3,34.3,56,30.37,7.0,NW,8.1,-,N/A,,Overcast,320,2013-01-04 05:55:00